Toronto Pearson, Ontario

9:38 AM EST on February 08, 2016 (GMT -0500)
Toronto-Pearson International

Weather History for CYYZ - September, 2012

Change the Weather History Date:

Sunday, September 2, 2012

  Actual Average Record
Temperature  
Mean Temperature 72 °F -  
Max Temperature 81 °F 69 °F 91 °F (2015)
Min Temperature 62 °F 48 °F 48 °F (2001)
Cooling Degree Days 6    
Growing Degree Days 22 (Base 50)    
Moisture  
Dew Point 56 °F    
Average Humidity 59    
Maximum Humidity 82    
Minimum Humidity 31    
Precipitation  
Precipitation 0.00 in 0.10 in - ()
Sea Level Pressure  
Sea Level Pressure 30.07 in    
Wind  
Wind Speed 6 mph ()    
Max Wind Speed 10 mph    
Max Gust Speed -    
Visibility 15.0 miles    
Events      
Averages and records for this station are not official NWS values.
T = Trace of Precipitation, MM = Missing Value Source: Averaged Metar Reports

Daily Weather History Graph

Daily Weather History Graph

Search for Another Location

Airport or City:

Trip Planner

Search our weather history database for the weather conditions in past years. The results will help you decide how hot, cold, wet, or windy it might be!

Date:

Astronomy

Sep. 02, 2012 Rise Set
Actual Time 6:43 AM EDT 7:51 PM EDT
Civil Twilight 6:14 AM EDT 8:20 PM EDT
Nautical Twilight 5:39 AM EDT 8:55 PM EDT
Astronomical Twilight 5:01 AM EDT 9:32 PM EDT
Moon 8:30 PM EDT (9/2) 8:56 AM EDT (9/2)
Length of Visible Light 14h 06m
Length of Day
13h 07m
Waning Gibbous, 95% of the Moon is Illuminated
Sep 2
Waning Gibbous
Sep 8
Last Quarter
Sep 15
New
Sep 22
First Quarter
Sep 29
Full

Hourly Weather History & Observations

Time (EDT) Temp. Heat Index Dew Point Humidity Pressure Visibility Wind Dir Wind Speed Gust Speed Precip Events Conditions
12:00 AM 68.0 °F - 55.4 °F 64% 30.09 in 15.0 mi NW 5.8 mph - N/A   Partly Cloudy
1:00 AM 66.2 °F - 57.2 °F 73% 30.09 in 15.0 mi North 8.1 mph - N/A   Partly Cloudy
2:00 AM 65 °F - 57 °F 69% 30.10 in 15 mi North 8.1 mph - -   Scattered Clouds
2:00 AM 64.4 °F - 57.2 °F 77% 30.10 in 15.0 mi North 8.1 mph - N/A   Partly Cloudy
3:00 AM 64.4 °F - 57.2 °F 77% 30.09 in 15.0 mi NNW 6.9 mph - N/A   Partly Cloudy
4:00 AM 62.6 °F - 57.2 °F 82% 30.09 in 15.0 mi NW 5.8 mph - N/A   Scattered Clouds
5:00 AM 64.4 °F - 57.2 °F 77% 30.09 in 15.0 mi North 9.2 mph - N/A   Mostly Cloudy
6:00 AM 62.6 °F - 57.2 °F 82% 30.09 in 15.0 mi North 9.2 mph - N/A   Partly Cloudy
7:00 AM 62.6 °F - 57.2 °F 82% 30.09 in 15.0 mi North 8.1 mph - N/A   Scattered Clouds
8:00 AM 64 °F - 57 °F 71% 30.10 in 15 mi North 9.2 mph - -   Scattered Clouds
8:00 AM 64.4 °F - 57.2 °F 77% 30.10 in 15.0 mi North 9.2 mph - N/A   Partly Cloudy
9:00 AM 68.0 °F - 57.2 °F 68% 30.10 in 15.0 mi North 6.9 mph - N/A   Partly Cloudy
10:00 AM 73.4 °F - 53.6 °F 50% 30.10 in 15.0 mi NNE 10.4 mph - N/A   Partly Cloudy
11:00 AM 75.2 °F - 53.6 °F 47% 30.10 in 15.0 mi NNE 5.8 mph - N/A   Partly Cloudy
12:00 PM 77.0 °F - 53.6 °F 44% 30.09 in 15.0 mi NW 2.3 mph - N/A   Partly Cloudy
1:00 PM 78.8 °F - 55.4 °F 44% 30.08 in 15.0 mi NE 3.5 mph - N/A   Partly Cloudy
2:00 PM 81 °F - 56 °F 31% 30.07 in 15 mi North 3.5 mph - -   Scattered Clouds
2:00 PM 80.6 °F 80.5 °F 55.4 °F 42% 30.07 in 15.0 mi North 5.8 mph - N/A   Partly Cloudy
3:00 PM 80.6 °F 80.8 °F 57.2 °F 45% 30.05 in 15.0 mi North 5.8 mph - N/A   Partly Cloudy
4:00 PM 80.6 °F 80.8 °F 57.2 °F 45% 30.04 in 15.0 mi South 6.9 mph - N/A   Partly Cloudy
5:00 PM 78.8 °F - 57.2 °F 47% 30.04 in 15.0 mi SE 8.1 mph - N/A   Partly Cloudy
6:00 PM 78.8 °F - 55.4 °F 44% 30.04 in 15.0 mi ESE 4.6 mph - N/A   Partly Cloudy
7:00 PM 77.0 °F - 55.4 °F 47% 30.03 in 15.0 mi North 6.9 mph - N/A   Partly Cloudy
8:00 PM 74 °F - 54 °F 38% 30.03 in 15 mi North 6.9 mph - -   Clear
8:00 PM 73.4 °F - 53.6 °F 50% 30.03 in 15.0 mi North 6.9 mph - N/A   Partly Cloudy
9:00 PM 73.4 °F - 57.2 °F 57% 30.04 in 15.0 mi ENE 2.3 mph - N/A   Clear
10:00 PM 71.6 °F - 59.0 °F 64% 30.06 in 15.0 mi SE 2.3 mph - N/A   Clear
11:00 PM 71.6 °F - 60.8 °F 69% 30.05 in 15.0 mi SE 3.5 mph - N/A   Clear